• Join FlightAware (Why Join?)
  • Login
  • US Flag 
12:55PM EST


 

Airport Tracker/Info


-or-


 

Live Flight TrackerFlight Track Log ✈ ASQ5123 ✈ 27-Oct-2013 ✈ KMGM - KATL

Flight Track Log - Related Links

Times and Time Zones

All times are in EDT time to prevent confusion due to time zone crossing. See the ASQ5123 flight status page for this flight to view local times or setup timezone preferences in your user account.

Time Position Orientation Groundspeed Altitude Reporting Facility
EDT Latitude Longitude Course Direction KTS MPH feet Rate Location/Type
08:19AM 32.3017 -86.3217 52° Northeast 225 259 2,900  Level Atlanta Center
08:20AM 32.3467 -86.2542 52° Northeast 248 285 5,800 3,150 Climbing Atlanta Center
08:21AM 32.3958 -86.1814 51° Northeast 266 306 9,200 2,850 Climbing Atlanta Center
08:22AM 32.4494 -86.1017 51° Northeast 287 330 11,500 2,100 Climbing Atlanta Center
08:23AM 32.5114 -86.0142 50° Northeast 317 365 13,400 2,000 Climbing Atlanta Center
08:24AM 32.5733 -85.9219 51° Northeast 340 391 15,500 2,050 Climbing Atlanta Center
08:25AM 32.6333 -85.9142 52° Northeast  Level Estimated
08:25AM 32.6375 -85.8272 51° Northeast 361 415 17,500  Level Atlanta Center
08:26AM 32.7036 -85.7247 53° Northeast 372 428 19,000 1,550 Climbing Atlanta Center
08:27AM 32.7717 -85.6247 51° Northeast 383 441 20,600 992 Climbing Atlanta Center
08:28AM 32.8419 -85.5172 52° Northeast 394 453 21,000 198 Climbing Atlanta Center
08:29AM 32.9142 -85.4097 51° Northeast 406 467 21,000 -605 Level Atlanta Center
08:30AM 32.9864 -85.2994 52° Northeast 412 474 19,800 -1,513 Descending Atlanta Center
08:31AM 33.0456 -85.2111 51° Northeast 417 480 18,000 -2,150 Descending Atlanta Center
08:32AM 33.1406 -85.0931 46° Northeast 409 471 15,500 -2,000 Descending Atlanta Center
08:33AM 33.2144 -84.9922 49° Northeast 409 471 14,000 -750 Descending Atlanta Center
08:34AM 33.2861 -84.8986 48° Northeast 396 456 14,000 -200 Level Atlanta Center
08:35AM 33.3578 -84.7997 49° Northeast 386 444 13,600 -750 Descending Atlanta Center
08:36AM 33.4356 -84.7083 44° Northeast 386 444 12,500 -793 Descending Atlanta Center
08:37AM 33.5069 -84.6242 44° Northeast 371 427 12,000 -500 Descending Atlanta Center
08:38AM 33.5364 -84.5397 67° East 274 315 11,500 -1,000 Descending Atlanta Center
08:39AM 33.5369 -84.4500 90° East 264 304 10,000 -1,629 Descending Atlanta Center
08:41AM 33.5333 -84.3167 92° East 254 292 7,400 -1,720 Descending Atlanta TRACON
08:42AM 33.5333 -84.2333 90° East 240 276 5,700 -1,600 Descending Atlanta TRACON
08:43AM 33.5333 -84.1500 90° East 240 276 4,200 -1,350 Descending Atlanta TRACON
08:44AM 33.5833 -84.1167 29° Northeast 221 254 3,000 -600 Descending Atlanta TRACON
08:45AM 33.6167 -84.1667 309° West 199 229 3,000  Level Atlanta TRACON
08:46AM 33.6333 -84.2333 287° West 204 235 3,000  Level Atlanta TRACON
08:47AM 33.6333 -84.3000 270° West 184 212 3,000 -350 Level Atlanta TRACON
08:48AM 33.6333 -84.3333 270° West 135 155 2,300 -700 Descending Atlanta TRACON
08:49AM 33.6333 -84.3833 270° West 120 138 1,600 -700 Descending Atlanta TRACON
08:51AM 33.6333 -84.4167 275° West  Level FlightAware Approximate
08:58AM 33.6367 -84.4279 275° West  Level Estimated
08:59AM 33.6367 -84.4279 275° West  Level Estimated